User: anonymous   Login
Location: Unspecified
(0.0000°N, 0.0000°E)
Time: 09:08:21
(UTC+00:00)
Language:

LARES - Orbit

View from above orbital plane
View from above orbital plane
View from above satellite
View from above satellite

Ground track
Ground track

The orbit data is extracted from the following two-line orbital elements,

1 38077U 12006A   19049.76517243 -.00000011  00000-0  17176-3 0  9990
2 38077  69.4921 182.0983 0006883  39.5311 320.6211 12.54931414321506
Epoch (UTC): 18 February 2019 18:21:50
Eccentricity: 0.0006883
inclination: 69.4921°
perigee height: 1438 km
apogee height: 1449 km
right ascension of ascending node: 182.0983°
argument of perigee: 39.5311°
revolutions per day: 12.54931414
mean anomaly at epoch: 320.6211°
orbit number at epoch: 32150

The dashed part of the orbit path shows where the satellite is in the earth's shadow,  

DLR